Showing default

COSMOS 1367, 13205

Orbit data source: Space-Track

COSMOS 1367, 13205 is a payload satellite owned by PVO (CIS) in HEO that was launched on Thu, 20 May 1982 UTC via an MOLNIYA 8K78M launch vehicle from the Plesetsk Missile And Space Complex (PKMTR). Payload-class satellites include a variety of spacecraft equipped with specific instruments for various scientific and technological missions. These include communications satellites like Starlink; space stations such as the ISS; scientific satellites like the Hubble; Earth observation satellites from companies like Planet Labs, Umbra, and HawkEye 360; GPS; miniature CubeSats for education and research; and military/defense satellites.

Loading next visibility...
Identifier
13205, 1982-045A
Orbit
HEO
Country
Flag of CISCIS
Related business
Manufacturer
NPOL/KOMET
Mission
Spacecraft
Bus & Motor
OKO, Unknown motor
Mass
~1,250 kg wet, ~1,150 kg dry
Launch date (UTC)
1982-05-20 (44 years ago)
Launch vehicle
MOLNIYA 8K78M
Launch site
Plesetsk Missile And Space Complex (PKMTR)
Object type
Payload
Rocket body
Debris
Shape & HBR
Unknown
Radar Cross Section
Large (>1 m²)

Expand to show TLE details & history
Last TLE update: 8 months ago

TLE from 8 months ago
0 COSMOS 1367
1 13205U 82045A   25304.74244421  .00000044  00000-0  00000-0 0  9990
2 13205  71.9842  75.1735 4968098 329.5011   9.1373  2.00464983318233
Epoch: 2025-10-31T17:49Z
TLE epoch observation values (Epoch: 2025-10-31T17:49:07.179Z)
Latitude
0.00008°
Longitude
127.59757°
Altitude
7,623.608 km
Speed
6.476 km/s
True Right ascension
05h 00m 38s
True Declination
0° 00' 00"
Sunlit
Object was in daylight at epoch
Visualization orbit readout
Latitude
Unknown
Longitude
Unknown
Altitude
Unknown
Speed
Unknown
Apparent Right ascension
Unknown
Apparent Declination
Unknown
Sunlit
N/A
Visualization observer readout
Local Sidereal Time
23:08:32
Azimuth
Unknown
Elevation
Unknown
Doppler factor
Unknown
Orbital elements
Apogee altitude
33,389.361 km
Perigee altitude
6,990.706 km
Semi-major axis
26,568.17 km
Eccentricity
0.49681
Inclination
71.9842°
RAAN
75.1735°
Arg. of periapsis
329.5011°
True anomaly
30.3497°
Mean anomaly
9.1373°
Eccentric anomaly
17.8739°
Mean motion
0.50119 °/min
Orbital period
718.29 mins
BSTAR
0
Loading maneuver chart data...
Computing Atmospheric mass density...
Loading historical data...
Loading historical data...
Loading historical data...
Loading historical data...
Loading historical data...
Loading historical data...
Loading historical data...

Documentation

Showing up to 5 results
|